Home > Weather > Memphis > Past weeks

Flag for USA Past Weather in Memphis, Tennessee, USA — Yesterday and Last 2 Weeks

Now
71 °F

Passing clouds.


Feels Like: 68 °F
Forecast: 70 / 89 °F
Wind: 3 mph from West

Location: Memphis International Airport

Current Time: May 30, 2016 at 5:57:48 AM

Latest Report: May 30, 2016 at 4:54 AM


Visibility: 10 mi

Pressure: 30.03 "Hg

Humidity: 90%

Dew Point: 68 °F

Location of MemphisLocation

Past Weather in Memphis — Graph

°F

Memphis Temperature Yesterday

Maximum temperature yesterday: 89 °F (at 2:54 PM)
Minimum temperature yesterday: 68 °F (at 5:54 AM)
Average temperature yesterday: 79 °F

High & Low Weather Summary for the Past Weeks

 TemperatureHumidityPressure
High90 °F (May 26, 3:54 PM)93% (May 20, 6:54 AM)30.23 "Hg (May 20, 6:54 AM)
Low55 °F (May 15, 5:54 AM)27% (May 22, 3:54 PM)29.85 "Hg (May 27, 4:54 PM)
Average71 °F66%30.03 "Hg
* Reported May 15 3:54 AM — May 30 3:54 AM, Memphis, Weather by CustomWeather, © 2016

Note: Actual official high and low records may vary slightly from our data, if they occured in-between our weather recording intervals... More about our weather records

Advertising

Memphis Weather History for the Previous 24 Hours

Scroll right to see more
 ConditionsComfort  
Time TempWeatherWind HumidityBarometerVisibility
3:54 AM
Mon, May 30
72 °FClear.No wind87%30.02 "Hg10 mi
2:54 AM73 °FClear.No wind88%30.01 "Hg10 mi
1:54 AM74 °FPassing clouds.5 mph85%30.02 "Hg10 mi
12:54 AM74 °FPassing clouds.No wind85%30.04 "Hg10 mi
11:54 PM
Sun, May 29
76 °FPassing clouds.No wind80%30.04 "Hg10 mi
10:54 PM78 °FPartly cloudy.3 mph71%30.05 "Hg10 mi
9:54 PM79 °FPassing clouds.3 mph67%30.04 "Hg10 mi
8:54 PM80 °FPartly cloudy.3 mph69%30.04 "Hg10 mi
7:54 PM82 °FMore clouds than sun.7 mph63%30.04 "Hg10 mi
6:54 PM84 °FOvercast.5 mph59%30.04 "Hg10 mi
5:54 PM85 °FOvercast.7 mph53%30.03 "Hg10 mi
4:54 PM88 °FOvercast.No wind46%30.04 "Hg10 mi
3:54 PM89 °FPartly sunny.7 mph52%30.06 "Hg10 mi
2:54 PM89 °FScattered clouds.6 mph52%30.07 "Hg10 mi
1:54 PM88 °FScattered clouds.8 mph52%30.09 "Hg10 mi
12:54 PM87 °FScattered clouds.6 mph57%30.09 "Hg10 mi
11:54 AM85 °FScattered clouds.3 mph55%30.11 "Hg10 mi
10:54 AM84 °FBroken clouds.6 mph61%30.11 "Hg10 mi
9:54 AM83 °FScattered clouds.No wind68%30.12 "Hg10 mi
8:54 AM79 °FScattered clouds.No wind77%30.13 "Hg10 mi
7:54 AM75 °FScattered clouds.5 mph85%30.12 "Hg10 mi
6:54 AM71 °FBroken clouds.No wind90%30.11 "Hg10 mi
5:54 AM68 °FScattered clouds.5 mph90%30.09 "Hg10 mi
Weather by CustomWeather, © 2016

See weather overviewHow to use our weather pages